2023-07-05 10:52:38, 100, 4.11, 10.41
2023-07-05 10:53:12, 100, 4.12, 10.41
2023-07-05 10:53:35, 100, 4.12, 10.36
2023-07-05 10:53:35, 100, 4.12, 10.36
2023-07-05 12:00:09, 100, 4.02, 15.74
2023-07-05 15:00:09, 100, 4.04, 14.48
2023-07-05 18:00:09, 100, 4.06, 14.48
2023-07-05 21:00:09, 100, 4.05, 8.98
2023-07-05 21:01:25, 100, 4.05, 9.01
2023-07-06 00:00:09, 100, 4.05, 6.5
2023-07-06 03:00:09, 100, 4.05, 5.59
2023-07-06 06:00:09, 100, 4.05, 6.55
2023-07-06 09:00:09, 100, 4.06, 8.44
2023-07-06 11:35:27, 100, 4.15, 10.86
2023-07-06 11:38:11, 100, 4.15, 10.53
2023-07-06 11:38:52, 100, 4.16, 10.56
2023-07-06 12:00:10, 100, 4.06, 10.35
2023-07-06 15:00:09, 100, 4.07, 14.94
2023-07-06 18:00:09, 100, 4.06, 8.16
2023-07-06 21:00:09, 100, 4.05, 7.69
2023-07-07 00:00:09, 100, 4.05, 5.2
2023-07-07 03:00:09, 100, 4.06, 5.68
2023-07-07 06:00:09, 100, 4.06, 5.83
2023-07-07 09:00:09, 100, 4.06, 7.94
2023-07-07 12:00:09, 100, 4.06, 13.11
2023-07-07 15:00:09, 100, 4.06, 9.66
2023-07-07 18:00:09, 100, 4.06, 8.03
2023-07-07 21:00:09, 100, 4.06, 6.05
2023-07-08 00:00:09, 100, 4.05, 5.97
2023-07-08 03:00:09, 100, 4.05, 5.17
2023-07-08 06:00:09, 100, 4.06, 5.82
2023-07-08 09:00:09, 100, 4.06, 8.09
2023-07-08 11:48:38, 100, 4.14, 11.19
2023-07-08 12:00:09, 100, 4.06, 10.24
2023-07-08 15:00:09, 100, 4.07, 9.52
2023-07-08 18:00:09, 100, 4.06, 8.77
2023-07-08 21:00:09, 100, 4.06, 8.23
2023-07-09 00:00:09, 100, 4.06, 7.89
2023-07-09 03:00:09, 100, 4.05, 7.11
2023-07-09 06:00:09, 100, 4.06, 9.01
2023-07-09 09:00:09, 100, 4.06, 10.94
2023-07-09 12:00:09, 100, 4.06, 14.99
2023-07-09 15:00:09, 100, 4.06, 12.04
2023-07-09 18:00:09, 100, 4.06, 12.0
2023-07-09 21:00:09, 100, 4.06, 9.09
2023-07-09 21:02:33, 100, 4.06, 9.07
2023-07-10 00:00:09, 100, 4.05, 7.2
2023-07-10 03:00:09, 100, 4.06, 8.3
2023-07-10 06:00:09, 100, 4.06, 7.39
2023-07-10 09:00:09, 100, 4.06, 8.52
2023-07-10 12:00:09, 100, 4.06, 11.75
2023-07-10 15:00:09, 100, 4.06, 16.65
2023-07-10 18:00:09, 100, 4.06, 9.83
2023-07-10 21:00:09, 100, 4.06, 8.81
2023-07-11 00:00:09, 100, 4.06, 6.42
2023-07-11 03:00:09, 100, 4.06, 7.2
2023-07-11 06:00:09, 100, 4.07, 9.7
2023-07-11 09:00:09, 100, 4.07, 15.07
2023-07-11 12:00:09, 100, 4.06, 18.05
2023-07-11 15:00:09, 100, 4.06, 17.17
2023-07-11 18:00:09, 100, 4.05, 14.69
2023-07-11 21:00:09, 100, 4.06, 10.34
2023-07-12 00:00:09, 100, 4.06, 7.57
2023-07-12 03:00:09, 100, 4.06, 6.96
2023-07-12 03:00:09, 100, 4.06, 6.96
2023-07-12 06:00:09, 100, 4.06, 8.84
2023-07-12 06:00:09, 100, 4.06, 8.84
2023-07-12 09:00:09, 100, 4.06, 13.9
2023-07-12 12:00:09, 100, 4.06, 16.47
2023-07-12 15:00:09, 100, 4.06, 14.64
2023-07-12 18:00:09, 100, 4.06, 11.27
2023-07-12 21:00:09, 100, 4.06, 9.14
2023-07-13 00:00:09, 100, 4.07, 7.73
2023-07-13 03:00:09, 100, 4.06, 7.29
2023-07-13 06:00:09, 100, 4.07, 7.78
2023-07-13 09:00:09, 100, 4.06, 15.77
2023-07-13 12:00:09, 100, 4.06, 16.77
2023-07-13 15:00:09, 100, 4.05, 15.61
2023-07-13 18:00:09, 100, 4.06, 11.45
2023-07-13 21:00:09, 100, 4.05, 9.61
2023-07-14 00:00:09, 100, 4.05, 8.48
2023-07-14 03:00:09, 100, 4.05, 5.71
2023-07-14 06:00:09, 100, 4.06, 6.81
2023-07-14 09:00:09, 100, 4.06, 10.23
2023-07-14 12:00:09, 100, 4.06, 10.92
2023-07-14 15:00:09, 100, 4.06, 11.98
2023-07-14 18:00:09, 100, 4.06, 12.06
2023-07-14 21:00:09, 100, 4.06, 9.92
2023-07-15 00:00:09, 100, 4.06, 7.86
2023-07-15 03:00:09, 100, 4.05, 6.81
2023-07-15 06:00:09, 100, 4.06, 6.9
2023-07-15 09:00:09, 100, 4.06, 7.27
2023-07-15 12:00:09, 100, 4.08, 10.53
2023-07-21 19:59:54, 100, 2.86, 8.5
2023-07-22 21:02:46, 100, 2.92, 8.27
2023-07-23 03:38:27, 100, 2.76, 6.44
2023-07-23 23:03:39, 100, 2.74, 5.95
2023-07-25 11:15:35, 100, 2.87, 6.73
2023-07-25 12:00:09, 100, 2.93, 6.88
2023-07-25 15:00:09, 100, 3.14, 8.71
2023-07-25 18:00:09, 100, 3.17, 7.76
2023-07-25 21:00:09, 100, 3.19, 6.21
2023-07-26 00:00:09, 100, 3.18, 5.84
2023-07-26 06:49:25, 100, 3.13, 5.53
2023-07-26 09:00:09, 100, 3.17, 5.9
2023-07-26 12:00:09, 100, 3.24, 6.66
2023-07-26 15:00:09, 100, 3.3, 7.26
2023-07-26 18:00:09, 100, 3.31, 6.61
2023-07-26 21:00:09, 100, 3.3, 5.22
2023-07-27 00:00:09, 100, 3.3, 4.66
2023-07-27 03:00:09, 100, 3.3, 4.39
2023-07-27 06:00:09, 100, 3.3, 4.47
2023-07-27 09:00:09, 100, 3.31, 7.97
2023-07-27 12:00:09, 100, 3.33, 10.63
2023-07-27 15:00:09, 100, 3.34, 11.98
2023-07-27 18:00:09, 100, 3.35, 9.73
2023-07-27 21:00:09, 100, 3.33, 6.43
2023-07-28 00:00:09, 100, 3.32, 5.26
2023-07-28 03:00:09, 100, 3.33, 4.68
2023-07-28 06:00:09, 100, 3.33, 5.42
2023-07-28 09:00:09, 100, 3.37, 9.39
2023-07-28 12:00:09, 100, 3.34, 14.15
2023-07-28 15:00:09, 100, 3.37, 15.16
2023-07-28 18:00:09, 100, 3.4, 11.41
2023-07-28 21:00:09, 100, 3.38, 9.88
2023-07-29 00:00:09, 100, 3.38, 7.26
2023-07-29 03:00:09, 100, 3.38, 5.73
2023-07-29 06:00:09, 100, 3.38, 5.44
2023-07-29 09:00:09, 100, 3.4, 7.3
2023-07-29 12:00:09, 100, 3.41, 9.8
2023-07-29 15:00:09, 100, 3.41, 11.77
2023-07-29 18:00:09, 100, 3.43, 9.85
2023-07-29 21:00:09, 100, 3.42, 7.23
2023-07-30 00:00:09, 100, 3.42, 6.02
2023-07-30 03:00:09, 100, 3.42, 5.34
2023-07-30 06:00:09, 100, 3.42, 6.19
2023-07-30 09:00:09, 100, 3.43, 11.31
2023-07-30 12:00:09, 100, 3.43, 17.22
2023-07-30 15:00:09, 100, 3.43, 13.15
2023-07-30 18:00:09, 100, 3.44, 9.17
2023-07-30 21:00:09, 100, 3.44, 6.2
2023-07-31 00:00:09, 100, 3.44, 5.74
2023-07-31 03:00:09, 100, 3.44, 5.46
2023-07-31 06:00:09, 100, 3.44, 5.41
2023-07-31 09:00:09, 100, 3.46, 8.34
2023-07-31 12:00:09, 100, 3.45, 16.52
2023-07-31 15:00:09, 100, 3.45, 15.52
2023-07-31 18:00:09, 100, 3.45, 11.08
2023-07-31 21:00:09, 100, 3.45, 7.38
2023-08-01 00:00:09, 100, 3.44, 5.76
2023-08-01 03:00:09, 100, 3.46, 5.24
2023-08-01 06:00:09, 100, 3.46, 5.34
2023-08-01 09:00:09, 100, 3.48, 10.76
2023-08-01 12:00:09, 100, 3.46, 16.41
2023-08-01 15:00:09, 100, 3.45, 17.05
2023-08-01 18:00:09, 100, 3.47, 12.61
2023-08-01 21:00:21, 100, 3.46, 7.63
2023-08-01 21:01:46, 100, 3.46, 7.65
2023-08-02 00:00:09, 100, 3.46, 4.84
2023-08-02 03:00:09, 100, 3.46, 5.48
2023-08-02 06:00:09, 100, 3.45, 6.18
2023-08-02 09:00:09, 100, 3.47, 10.99
2023-08-02 12:00:09, 100, 3.46, 16.34
2023-08-02 15:00:09, 100, 3.46, 17.28
2023-08-02 18:00:09, 100, 3.46, 11.13
2023-08-02 21:00:09, 100, 3.46, 8.81
2023-08-02 21:01:34, 100, 3.47, 8.84
2023-08-03 00:00:09, 100, 3.46, 6.23
2023-08-03 03:00:09, 100, 3.46, 6.34
2023-08-03 06:00:09, 100, 3.47, 6.96
2023-08-03 09:00:09, 100, 3.48, 8.51
2023-08-03 12:00:09, 100, 3.47, 14.6
2023-08-03 15:00:09, 100, 3.47, 13.24
2023-08-03 18:00:09, 100, 3.46, 10.9
2023-08-03 21:00:09, 100, 3.47, 7.24
2023-08-04 00:00:09, 100, 3.46, 6.34
2023-08-04 03:00:09, 100, 3.46, 5.7
2023-08-04 06:00:09, 100, 3.47, 6.32
2023-08-04 09:00:09, 100, 3.48, 9.16
2023-08-04 12:00:09, 100, 3.47, 16.92
2023-08-04 15:00:09, 100, 3.47, 13.38
2023-08-04 18:00:09, 100, 3.47, 11.05
2023-08-04 21:00:09, 100, 3.48, 6.25
2023-08-05 00:00:09, 100, 3.48, 4.77
2023-08-05 03:00:09, 100, 3.48, 5.38
2023-08-05 06:00:09, 100, 3.47, 5.74
2023-08-05 09:00:09, 100, 3.51, 10.69
2023-08-05 12:00:09, 100, 3.48, 18.06
2023-08-05 15:00:09, 100, 3.48, 14.77
2023-08-05 18:00:09, 100, 3.49, 10.45
2023-08-05 21:00:09, 100, 3.48, 7.45
2023-08-05 21:01:29, 100, 3.48, 7.48
2023-08-06 00:00:09, 100, 3.48, 5.35
2023-08-06 03:00:09, 100, 3.48, 4.52
2023-08-06 06:00:09, 100, 3.48, 5.12
2023-08-06 09:00:09, 100, 3.51, 11.73
2023-08-06 12:00:09, 100, 3.49, 11.74
2023-08-06 15:00:09, 100, 3.5, 11.32
2023-08-06 18:00:09, 100, 3.5, 8.48
2023-08-06 21:00:09, 100, 3.49, 6.84
2023-08-07 00:00:09, 100, 3.49, 5.41
2023-08-07 03:00:09, 100, 3.49, 5.09
2023-08-07 06:00:09, 100, 3.49, 5.54
2023-08-07 09:00:09, 100, 3.52, 11.3
2023-08-07 12:00:09, 100, 3.51, 10.18
2023-08-07 15:00:09, 100, 3.51, 8.02
2023-08-07 18:00:09, 100, 3.51, 9.31
2023-08-07 21:00:09, 100, 3.5, 6.23
2023-08-08 00:00:09, 100, 3.51, 5.31
2023-08-08 03:00:09, 100, 3.51, 3.21
2023-08-08 06:00:09, 100, 3.51, 3.64
2023-08-08 09:00:09, 100, 3.54, 7.8
2023-08-08 12:00:09, 100, 3.51, 15.07
2023-08-08 15:00:09, 100, 3.51, 14.4
2023-08-08 18:00:09, 100, 3.51, 10.02
2023-08-08 21:00:09, 100, 3.51, 8.64
2023-08-08 21:00:41, 100, 3.52, 8.65
2023-08-09 00:00:09, 100, 3.51, 8.14
2023-08-09 03:00:09, 100, 3.51, 6.8
2023-08-09 06:00:09, 100, 3.52, 7.06
2023-08-09 09:00:09, 100, 3.55, 11.91
2023-08-09 12:00:09, 100, 3.51, 14.99
2023-08-09 15:00:09, 100, 3.52, 16.85
2023-08-09 18:00:09, 100, 3.52, 10.99
2023-08-09 21:00:09, 100, 3.52, 9.07
2023-08-09 21:01:58, 100, 3.52, 9.13
2023-08-10 00:00:09, 100, 3.52, 6.97
2023-08-10 03:00:09, 100, 3.52, 6.07
2023-08-10 06:00:09, 100, 3.51, 5.83
2023-08-10 09:00:09, 100, 3.53, 8.37
2023-08-10 12:00:09, 100, 3.53, 9.92
2023-08-10 15:00:09, 100, 3.53, 14.18
2023-08-10 18:00:09, 100, 3.54, 11.11
2023-08-10 21:00:09, 100, 3.53, 7.68
2023-08-11 00:00:09, 100, 3.52, 7.58
2023-08-11 03:00:09, 100, 3.53, 6.2
2023-08-11 06:00:09, 100, 3.53, 7.12
2023-08-11 09:00:09, 100, 3.54, 8.01
2023-08-11 12:00:09, 100, 3.55, 9.34
2023-08-11 15:00:09, 100, 3.56, 13.33
2023-08-11 18:00:09, 100, 3.56, 10.14
2023-08-11 21:00:09, 100, 3.55, 7.1
2023-08-12 00:00:09, 100, 3.55, 6.22
2023-08-12 03:00:09, 100, 3.55, 4.72
2023-08-12 06:00:09, 100, 3.55, 5.24
2023-08-12 09:00:09, 100, 3.57, 6.71
2023-08-12 12:00:09, 100, 3.58, 9.3
2023-08-12 15:00:09, 100, 3.59, 8.48
2023-08-12 18:00:09, 100, 3.61, 9.45
2023-08-12 21:00:09, 100, 3.59, 7.01
2023-08-13 00:00:09, 100, 3.6, 5.9
2023-08-13 03:00:09, 100, 3.6, 6.57
2023-08-13 06:00:09, 100, 3.6, 5.02
2023-08-13 09:00:09, 100, 3.62, 13.52
2023-08-13 12:00:09, 100, 3.6, 13.45
2023-08-13 15:00:09, 100, 3.61, 12.68
2023-08-13 18:00:09, 100, 3.61, 11.23
2023-08-13 21:00:09, 100, 3.61, 8.3
2023-08-14 00:00:09, 100, 3.61, 6.83
2023-08-14 03:00:09, 100, 3.61, 8.07
2023-08-14 06:00:09, 100, 3.61, 7.22
2023-08-14 09:00:09, 100, 3.64, 11.19
2023-08-14 12:00:09, 100, 3.62, 17.65
2023-08-14 15:00:09, 100, 3.61, 17.66
2023-08-14 18:00:09, 100, 3.63, 11.4
2023-08-14 21:00:09, 100, 3.62, 7.71
2023-08-15 00:00:09, 100, 3.62, 5.1
2023-08-15 03:00:09, 100, 3.62, 6.36
2023-08-15 06:00:09, 100, 3.62, 5.73
2023-08-15 09:00:09, 100, 3.66, 11.5
2023-08-15 12:00:09, 100, 3.64, 17.09
2023-08-15 15:00:10, 100, 3.63, 15.3
2023-08-15 18:00:09, 100, 3.63, 13.32
2023-08-15 21:00:09, 100, 3.63, 8.38
2023-08-16 00:00:09, 100, 3.63, 7.5
2023-08-16 03:00:09, 100, 3.64, 5.8
2023-08-16 06:00:09, 100, 3.63, 5.57
2023-08-16 09:00:09, 100, 3.67, 12.45
2023-08-16 12:00:09, 100, 3.65, 18.27
2023-08-16 15:00:09, 100, 3.65, 15.13
2023-08-16 18:00:09, 100, 3.69, 11.23
2023-08-16 21:00:09, 100, 3.66, 8.57
2023-08-17 00:00:09, 100, 3.66, 6.23
2023-08-17 03:00:09, 100, 3.66, 5.49
2023-08-17 06:00:09, 100, 3.66, 6.52
2023-08-17 09:00:09, 100, 3.68, 8.57
2023-08-17 12:00:09, 100, 3.71, 11.38
2023-08-17 15:00:09, 100, 3.7, 11.28
2023-08-17 18:00:09, 100, 3.69, 6.91
2023-08-17 21:00:09, 100, 3.7, 6.56
2023-08-18 00:00:09, 100, 3.69, 7.06
2023-08-18 03:00:09, 100, 3.69, 5.89
2023-08-18 06:00:09, 100, 3.69, 5.18
2023-08-18 09:00:09, 100, 3.7, 6.19
2023-08-18 12:00:09, 100, 3.7, 6.14
2023-08-18 15:00:09, 100, 3.7, 5.73
2023-08-18 18:00:09, 100, 3.7, 6.38
2023-08-18 21:00:09, 100, 3.7, 5.86
2023-08-18 21:01:13, 100, 3.71, 5.86
2023-08-19 00:00:09, 100, 3.71, 5.57
2023-08-19 03:00:09, 100, 3.7, 5.2
2023-08-19 06:00:09, 100, 3.7, 5.83
2023-08-19 09:00:09, 100, 3.71, 6.42
2023-08-19 12:00:09, 100, 3.71, 8.64
2023-08-19 15:00:09, 100, 3.72, 11.48
2023-08-19 18:00:09, 100, 3.74, 11.23
2023-08-19 21:00:09, 100, 3.73, 8.69
2023-08-20 00:00:09, 100, 3.72, 8.51
2023-08-20 03:00:09, 100, 3.72, 8.84
2023-08-20 03:00:09, 100, 3.72, 8.84
2023-08-20 06:00:09, 100, 3.73, 8.45
2023-08-20 06:00:09, 100, 3.73, 8.45
2023-08-20 09:00:09, 100, 3.75, 11.18
2023-08-20 12:00:09, 100, 3.74, 13.93
2023-08-20 15:00:09, 100, 3.74, 16.48
2023-08-20 18:00:09, 100, 3.74, 13.98
2023-08-20 21:00:09, 100, 3.75, 9.85
2023-08-21 00:00:09, 100, 3.74, 7.88
2023-08-21 03:00:09, 100, 3.74, 7.89
2023-08-21 06:00:09, 100, 3.74, 7.82
2023-08-21 09:00:09, 100, 3.78, 11.02
2023-08-21 12:00:09, 100, 3.76, 11.34
2023-08-21 15:00:09, 100, 3.76, 10.87
2023-08-21 18:00:09, 100, 3.78, 10.85
2023-08-21 21:00:09, 100, 3.77, 8.53
2023-08-22 00:00:09, 100, 3.77, 5.88
2023-08-22 03:00:09, 100, 3.76, 5.7
2023-08-22 06:00:09, 100, 3.77, 6.2
2023-08-22 09:00:09, 100, 3.78, 7.67
2023-08-22 12:00:09, 100, 3.78, 10.02
2023-08-22 15:00:09, 100, 3.79, 12.77
2023-08-22 18:00:09, 100, 3.8, 10.98
2023-08-22 21:00:09, 100, 3.79, 10.35
2023-08-23 00:00:09, 100, 3.79, 8.61
2023-08-23 03:00:09, 100, 3.79, 8.21
2023-08-23 06:00:09, 100, 3.8, 8.34
2023-08-23 09:00:09, 100, 3.81, 13.15
2023-08-23 12:00:09, 100, 3.8, 18.77
2023-08-23 15:00:09, 100, 3.8, 17.0
2023-08-23 18:00:09, 100, 3.82, 13.59
2023-08-23 21:00:09, 100, 3.8, 8.64
2023-08-23 21:01:55, 100, 3.81, 8.61
2023-08-24 00:00:09, 100, 3.81, 7.4
2023-08-24 03:00:09, 100, 3.8, 7.14
2023-08-24 06:00:09, 100, 3.81, 6.62
2023-08-24 09:00:09, 100, 3.83, 9.55
2023-08-24 12:00:09, 100, 3.82, 14.72
2023-08-24 15:00:09, 100, 3.82, 15.75
2023-08-24 18:00:09, 100, 3.82, 12.39
2023-08-24 21:00:09, 100, 3.82, 6.44
2023-08-25 00:00:09, 100, 3.83, 6.47
2023-08-25 03:00:09, 100, 3.82, 6.03
2023-08-25 06:00:09, 100, 3.83, 5.88
2023-08-25 09:00:09, 100, 3.84, 9.59
2023-08-25 12:00:09, 100, 3.83, 16.02
2023-08-25 15:00:09, 100, 3.82, 15.71
2023-08-25 18:00:09, 100, 3.82, 11.15
2023-08-25 21:00:09, 100, 3.83, 7.72
2023-08-26 00:00:09, 100, 3.83, 6.48
2023-08-26 03:00:09, 100, 3.82, 6.49
2023-08-26 06:00:09, 100, 3.82, 6.45
2023-08-26 09:00:09, 100, 3.84, 8.34
2023-08-26 12:00:09, 100, 3.87, 10.03
2023-08-26 15:00:09, 100, 3.86, 11.32
2023-08-26 18:00:09, 100, 3.86, 7.45
2023-08-26 21:00:09, 100, 3.86, 6.38
2023-08-27 00:00:09, 100, 3.86, 5.7
2023-08-27 03:00:09, 100, 3.85, 6.38
2023-08-27 06:00:09, 100, 3.86, 6.26
2023-08-27 09:00:09, 100, 3.89, 12.23
2023-08-27 12:00:09, 100, 3.88, 14.34
2023-08-27 15:00:09, 100, 3.86, 13.46
2023-08-27 18:00:09, 100, 3.87, 11.29
2023-08-27 21:00:09, 100, 3.88, 7.11
2023-08-28 00:00:09, 100, 3.87, 5.95
2023-08-28 03:00:09, 100, 3.88, 6.02
2023-08-28 06:00:09, 100, 3.87, 4.96
2023-08-28 09:00:09, 100, 3.87, 5.1
2023-08-28 12:00:09, 100, 3.88, 5.53
2023-08-28 15:00:09, 100, 3.9, 7.01
2023-08-28 18:00:09, 100, 3.91, 8.38
2023-08-28 21:00:10, 100, 3.9, 5.94
2023-08-29 00:00:09, 100, 3.9, 5.1
2023-08-29 03:00:10, 100, 3.9, 5.94
2023-08-29 06:00:09, 100, 3.9, 5.34
2023-08-29 09:00:09, 100, 3.91, 7.41
2023-08-29 12:00:09, 100, 3.92, 9.85
2023-08-30 10:07:21, 100, 3.96, 10.02
2023-08-30 10:10:55, 100, 3.96, 9.77
2023-08-30 12:00:09, 100, 3.91, 15.61
2023-08-30 15:00:09, 100, 3.91, 13.27
2023-08-30 18:00:09, 100, 3.91, 8.16
2023-08-30 21:00:09, 100, 3.9, 4.72
2023-08-30 21:00:09, 100, 3.9, 4.72
2023-08-31 00:00:09, 100, 3.9, 4.62
2023-08-31 00:00:09, 100, 3.9, 4.62
2023-08-31 03:00:09, 100, 3.9, 4.89
2023-08-31 03:00:09, 100, 3.9, 4.89
2023-08-31 06:00:09, 100, 3.91, 4.73
2023-08-31 06:00:09, 100, 3.91, 4.73
2023-08-31 09:00:09, 100, 3.91, 5.42
2023-08-31 12:00:15, 100, 3.94, 7.82
2023-08-31 15:00:09, 100, 3.93, 10.61
2023-08-31 15:00:09, 100, 3.93, 10.61
2023-08-31 18:00:09, 100, 3.93, 8.29
2023-08-31 18:00:09, 100, 3.93, 8.29
2023-08-31 21:00:09, 100, 3.94, 5.62
2023-08-31 21:00:09, 100, 3.94, 5.62
2023-09-01 00:00:09, 100, 3.94, 5.32
2023-09-01 00:00:09, 100, 3.94, 5.32
